Weather History for KBRD - January, 2014

Change the Weather History Date:

Tuesday, January 28, 2014

  Actual Average (KLXL) Record (KLXL)
Temperature  
Mean Temperature -12 °F -  
Max Temperature 0 °F 20 °F 62 °F (2002)
Min Temperature -25 °F 0 °F -34 °F (1966)
Degree Days  
Heating Degree Days 78    
Moisture  
Dew Point -21 °F    
Average Humidity 57    
Maximum Humidity 67    
Minimum Humidity 45    
Precipitation  
Precipitation 0.00 in - - ()
Sea Level Pressure  
Sea Level Pressure 30.26 in    
Wind  
Wind Speed 8 mph (WSW)    
Max Wind Speed 16 mph    
Max Gust Speed 21 mph    
Visibility 10 miles    
Events      
Averages and records for this station are not official NWS values.
T = Trace of Precipitation, MM = Missing Value Source: NWS Daily Summary

Daily Weather History Graph

Daily Weather History Graph

Search for Another Location

Airport or City:

Trip Planner

Search our weather history database for the weather conditions in past years. The results will help you decide how hot, cold, wet, or windy it might be!

Date:

Astronomy

Jan. 28, 2014 Rise Set
Actual Time 7:44 AM CST 5:15 PM CST
Civil Twilight 7:11 AM CST 5:47 PM CST
Nautical Twilight 6:35 AM CST 6:24 PM CST
Astronomical Twilight 6:00 AM CST 6:59 PM CST
Moon 5:29 AM CST (1/28) 3:03 PM CST (1/28)
Length of Visible Light 10h 35m
Length of Day
9h 30m
Waning Crescent, 7% of the Moon is Illuminated
Jan 28
Waning Crescent
Jan 30
New
Feb 6
First Quarter
Feb 14
Full
Feb 22
Last Quarter

Hourly Weather History & Observations

Time (CST) Temp. Windchill Dew Point Humidity Pressure Visibility Wind Dir Wind Speed Gust Speed Precip Events Conditions
12:53 AM -13.0 °F -27.0 °F -23.1 °F 61% 30.39 in 10.0 mi West 5.8 mph - N/A   Clear
1:53 AM -18.0 °F -30.9 °F -26.0 °F 67% 30.38 in 10.0 mi WSW 4.6 mph - N/A   Clear
2:53 AM -23.1 °F -36.8 °F -32.1 °F 63% 30.39 in 10.0 mi SSW 4.6 mph - N/A   Clear
3:53 AM -25.1 °F -39.1 °F -33.0 °F 66% 30.37 in 10.0 mi WSW 4.6 mph - N/A   Clear
4:53 AM -23.1 °F -38.9 °F -31.0 °F 67% 30.36 in 10.0 mi WSW 5.8 mph - N/A   Clear
5:53 AM -18.9 °F -37.2 °F -27.9 °F 63% 30.35 in 10.0 mi WSW 8.1 mph - N/A   Clear
6:53 AM -20.0 °F -33.3 °F -27.9 °F 67% 30.35 in 10.0 mi West 4.6 mph - N/A   Clear
7:53 AM -20.9 °F -38.1 °F -29.0 °F 66% 30.35 in 10.0 mi WSW 6.9 mph - N/A   Clear
8:53 AM -16.1 °F -33.7 °F -25.1 °F 64% 30.35 in 10.0 mi West 8.1 mph - N/A   Clear
9:53 AM -11.9 °F -32.0 °F -22.0 °F 61% 30.33 in 10.0 mi West 11.5 mph - N/A   Clear
10:53 AM -9.0 °F -29.3 °F -20.0 °F 59% 30.32 in 10.0 mi West 12.7 mph - N/A   Clear
11:53 AM -6.0 °F -24.6 °F -20.0 °F 51% 30.29 in 10.0 mi West 11.5 mph - N/A   Clear
12:53 PM -2.9 °F -20.8 °F -18.0 °F 49% 30.25 in 10.0 mi West 11.5 mph 19.6 mph N/A   Clear
1:53 PM -0.9 °F -21.2 °F -17.0 °F 47% 30.24 in 10.0 mi West 16.1 mph - N/A   Clear
2:53 PM -0.0 °F -18.0 °F -17.0 °F 45% 30.22 in 10.0 mi WSW 12.7 mph - N/A   Clear
3:53 PM -0.0 °F -16.3 °F -16.1 °F 47% 30.21 in 10.0 mi West 10.4 mph - N/A   Overcast
4:53 PM -0.9 °F -19.9 °F -17.0 °F 47% 30.21 in 10.0 mi West 13.8 mph - N/A   Overcast
5:53 PM -0.9 °F -18.3 °F -16.1 °F 49% 30.20 in 10.0 mi West 11.5 mph - N/A   Overcast
6:53 PM -0.9 °F -20.6 °F -15.0 °F 52% 30.19 in 10.0 mi West 15.0 mph - N/A   Overcast
7:53 PM -0.0 °F -18.7 °F -14.1 °F 52% 30.17 in 10.0 mi West 13.8 mph 20.7 mph N/A   Overcast
8:53 PM -0.9 °F -18.3 °F -14.1 °F 54% 30.13 in 10.0 mi West 11.5 mph - N/A   Clear
9:53 PM -2.0 °F -18.7 °F -14.1 °F 57% 30.11 in 10.0 mi WSW 10.4 mph - N/A   Clear
10:53 PM -5.1 °F -22.5 °F -16.1 °F 59% 30.09 in 10.0 mi WSW 10.4 mph - N/A   Clear
11:53 PM -4.0 °F -21.2 °F -15.0 °F 59% 30.06 in 10.0 mi WSW 10.4 mph - N/A   Clear